Zurück zum Katalog

FENGYUN 1C DEB

AktivSSO
NORAD 30443·DEBRIS·🇨🇳 China

Gestartet May 10, 1999 von Taiyuan Satellite Launch Center

Loading…

Nächste Überflüge (nächste 24 Stunden)

TLE

AktuellSource: Space-Track

Epoche: Sep 14, 2026, 08:30 UTC

1 30443U 99025AFE 26257.35442046  .00003381  00000-0  10873-2 0  9995
2 30443  98.8607 218.1249 0022972 243.1020 116.7819 14.39879321 13964

Verfolge FENGYUN 1C DEB in Echtzeit mit AllMySat

Download on the App Store